Weather History for Columbia, MO

Change the Weather History Date:

Saturday, November 24, 2012

  Actual Average Record
Temperature  
Mean Temperature 30 °F 40 °F  
Max Temperature 40 °F 49 °F 70 °F (1966)
Min Temperature 20 °F 31 °F 4 °F (1950)
Degree Days  
Heating Degree Days 35 25  
Month to date heating degree days 424 461  
Since 1 July heating degree days 821 826  
Cooling Degree Days 0 0  
Month to date cooling degree days 3 0  
Year to date cooling degree days 1896 1247  
Moisture  
Dew Point 17 °F    
Average Humidity 59    
Maximum Humidity 77    
Minimum Humidity 40    
Precipitation  
Precipitation 0.00 in 0.10 in 1.42 in (1987)
Month to date precipitation 0.99 2.60  
Year to date precipitation 29.14 39.53  
Snow  
Snow 0.00 in 0.10 in 4.70 in (2004)
Month to date snowfall 0.0 0.6  
Since 1 July snowfall 0.0 0.6  
Since 1 September snowfall 0.0 0.6  
Snow Depth 0.00 in    
Sea Level Pressure  
Sea Level Pressure 30.23 in    
Wind  
Wind Speed 7 mph (SW)    
Max Wind Speed 14 mph    
Max Gust Speed 17 mph    
Visibility 10 miles    
Events      
T = Trace of Precipitation, MM = Missing Value Source: NWS Daily Summary

Daily Weather History Graph

Daily Weather History Graph

Search for Another Location

Airport:

Trip Planner

Search our weather history database for the weather conditions in past years. The results will help you decide how hot, cold, wet, or windy it might be!

Date:

Astronomy

Nov. 24, 2012 Rise Set
Actual Time 7:01 AM CST 4:49 PM CST
Civil Twilight 6:32 AM CST 5:18 PM CST
Nautical Twilight 5:59 AM CST 5:51 PM CST
Astronomical Twilight 5:28 AM CST 6:23 PM CST
Moon 2:33 PM CST (11/24) 3:20 AM CST (11/24)
Length of Visible Light 10h 46m
Length of Day
9h 47m
Waxing Gibbous, 87% of the Moon is Illuminated
Nov 24
Waxing Gibbous
Nov 28
Full
Dec 6
Last Quarter
Dec 13
New
Dec 19
First Quarter

Hourly Weather History & Observations

Time (CST) Temp. Windchill Dew Point Humidity Pressure Visibility Wind Dir Wind Speed Gust Speed Precip Events Conditions
12:54 AM 25.0 °F 17.1 °F 15.1 °F 66% 30.39 in 10.0 mi WNW 6.9 mph - N/A   Clear
1:54 AM 24.1 °F 17.0 °F 15.1 °F 69% 30.39 in 10.0 mi WNW 5.8 mph - N/A   Clear
2:54 AM 23.0 °F 15.8 °F 15.1 °F 72% 30.39 in 10.0 mi WNW 5.8 mph - N/A   Clear
3:54 AM 21.9 °F 15.7 °F 15.1 °F 75% 30.38 in 10.0 mi WNW 4.6 mph - N/A   Clear
4:54 AM 21.9 °F 14.5 °F 15.1 °F 75% 30.38 in 10.0 mi West 5.8 mph - N/A   Clear
5:54 AM 21.0 °F 13.4 °F 15.1 °F 78% 30.38 in 10.0 mi West 5.8 mph - N/A   Clear
6:54 AM 21.0 °F - 15.1 °F 78% 30.38 in 10.0 mi Calm Calm - N/A   Clear
7:54 AM 24.1 °F 18.2 °F 17.1 °F 75% 30.39 in 10.0 mi WSW 4.6 mph - N/A   Clear
8:54 AM 26.1 °F 18.4 °F 17.1 °F 69% 30.38 in 10.0 mi West 6.9 mph - N/A   Clear
9:54 AM 28.0 °F 21.7 °F 16.0 °F 61% 30.38 in 10.0 mi SW 5.8 mph - N/A   Clear
10:54 AM 32.0 °F 26.4 °F 18.0 °F 56% 30.36 in 10.0 mi WSW 5.8 mph - N/A   Clear
11:54 AM 33.1 °F 28.7 °F 17.1 °F 52% 30.31 in 10.0 mi SW 4.6 mph - N/A   Clear
12:54 PM 35.1 °F - 17.1 °F 48% 30.26 in 10.0 mi Calm Calm - N/A   Clear
1:54 PM 37.9 °F 32.1 °F 18.0 °F 45% 30.22 in 10.0 mi SSE 8.1 mph - N/A   Clear
2:54 PM 39.0 °F 32.8 °F 18.0 °F 43% 30.19 in 10.0 mi South 9.2 mph - N/A   Clear
3:54 PM 37.9 °F 30.9 °F 19.0 °F 47% 30.16 in 10.0 mi SSE 10.4 mph - N/A   Clear
4:54 PM 36.0 °F 29.6 °F 19.0 °F 50% 30.12 in 10.0 mi SSE 8.1 mph - N/A   Clear
5:54 PM 34.0 °F 26.0 °F 19.0 °F 54% 30.09 in 10.0 mi SE 10.4 mph - N/A   Clear
6:54 PM 34.0 °F 25.5 °F 19.0 °F 54% 30.06 in 10.0 mi SSE 11.5 mph - N/A   Clear
7:54 PM 35.1 °F 26.9 °F 18.0 °F 50% 30.03 in 10.0 mi SSE 11.5 mph - N/A   Clear
8:54 PM 37.0 °F 28.9 °F 19.0 °F 48% 30.01 in 10.0 mi South 12.7 mph - N/A   Clear
9:54 PM 37.9 °F 30.9 °F 19.0 °F 47% 30.00 in 10.0 mi South 10.4 mph - N/A   Clear
10:54 PM 39.0 °F 32.3 °F 19.9 °F 46% 29.99 in 10.0 mi South 10.4 mph - N/A   Clear
11:54 PM 39.9 °F 33.4 °F 19.9 °F 45% 29.98 in 10.0 mi South 10.4 mph - N/A   Partly Cloudy